Year,Month,Day,Hour,Minute,Value (Times are PST for temperature in C)
2015,10,27,00,00,8.70
2015,10,27,00,01,8.70
2015,10,27,00,02,8.70
2015,10,27,00,03,8.70
2015,10,27,00,04,8.70
2015,10,27,00,05,8.70
2015,10,27,00,06,8.70
2015,10,27,00,07,8.70
2015,10,27,00,08,8.70
2015,10,27,00,09,8.70
2015,10,27,00,10,8.70
2015,10,27,00,11,8.70
2015,10,27,00,12,8.70
2015,10,27,00,13,8.70
2015,10,27,00,14,8.70
2015,10,27,00,15,8.70
2015,10,27,00,16,8.70
2015,10,27,00,17,8.70
2015,10,27,00,18,8.70
2015,10,27,00,19,8.70
2015,10,27,00,20,8.70
2015,10,27,00,21,8.70
2015,10,27,00,22,8.70
2015,10,27,00,23,8.70
2015,10,27,00,24,8.70
2015,10,27,00,25,8.70
2015,10,27,00,26,8.70
2015,10,27,00,27,8.70
2015,10,27,00,28,8.70
2015,10,27,00,29,8.70
2015,10,27,00,30,8.70
2015,10,27,00,31,8.80
2015,10,27,00,32,8.80
2015,10,27,00,33,8.80
2015,10,27,00,34,8.80
2015,10,27,00,35,8.80
2015,10,27,00,36,8.80
2015,10,27,00,37,8.80
2015,10,27,00,38,8.80
2015,10,27,00,39,8.80
2015,10,27,00,40,8.80
2015,10,27,00,41,8.80
2015,10,27,00,42,8.80
2015,10,27,00,43,8.80
2015,10,27,00,44,8.80
2015,10,27,00,45,8.80
2015,10,27,00,46,8.80
2015,10,27,00,47,8.80
2015,10,27,00,48,8.80
2015,10,27,00,49,8.80
2015,10,27,00,50,8.80
2015,10,27,00,51,8.80
2015,10,27,00,52,8.80
2015,10,27,00,53,8.80
2015,10,27,00,54,8.80
2015,10,27,00,55,8.80
2015,10,27,00,56,8.80
2015,10,27,00,57,8.80
2015,10,27,00,58,8.80
2015,10,27,00,59,8.80
2015,10,27,01,00,8.80
2015,10,27,01,01,8.90
2015,10,27,01,02,8.90
2015,10,27,01,03,8.90
2015,10,27,01,04,8.90
2015,10,27,01,05,8.90
2015,10,27,01,06,8.90
2015,10,27,01,07,8.90
2015,10,27,01,08,8.90
2015,10,27,01,09,8.90
2015,10,27,01,10,8.90
2015,10,27,01,11,8.90
2015,10,27,01,12,8.90
2015,10,27,01,13,8.90
2015,10,27,01,14,8.90
2015,10,27,01,15,8.90
2015,10,27,01,16,8.90
2015,10,27,01,17,8.90
2015,10,27,01,18,8.90
2015,10,27,01,19,8.90
2015,10,27,01,20,8.90
2015,10,27,01,21,8.90
2015,10,27,01,22,8.90
2015,10,27,01,23,8.90
2015,10,27,01,24,8.90
2015,10,27,01,25,8.90
2015,10,27,01,26,8.90
2015,10,27,01,27,8.90
2015,10,27,01,28,8.90
2015,10,27,01,29,8.90
2015,10,27,01,30,8.90
2015,10,27,01,31,8.90
2015,10,27,01,32,8.90
2015,10,27,01,33,8.90
2015,10,27,01,34,8.90
2015,10,27,01,35,8.90
2015,10,27,01,36,8.90
2015,10,27,01,37,8.90
2015,10,27,01,38,8.90
2015,10,27,01,39,8.90
2015,10,27,01,40,9.00
2015,10,27,01,41,9.00
2015,10,27,01,42,9.00
2015,10,27,01,43,9.00
2015,10,27,01,44,9.00
2015,10,27,01,45,9.00
2015,10,27,01,46,9.00
2015,10,27,01,47,9.00
2015,10,27,01,48,9.00
2015,10,27,01,49,9.00
2015,10,27,01,50,9.00
2015,10,27,01,51,9.00
2015,10,27,01,52,9.00
2015,10,27,01,53,9.00
2015,10,27,01,54,9.00
2015,10,27,01,55,9.00
2015,10,27,01,56,9.00
2015,10,27,01,57,9.00
2015,10,27,01,58,9.00
2015,10,27,01,59,9.00
2015,10,27,02,00,9.00
2015,10,27,02,01,9.00
2015,10,27,02,02,9.00
2015,10,27,02,03,9.00
2015,10,27,02,04,9.00
2015,10,27,02,05,9.10
2015,10,27,02,06,9.10
2015,10,27,02,07,9.10
2015,10,27,02,08,9.10
2015,10,27,02,09,9.10
2015,10,27,02,10,9.10
2015,10,27,02,11,9.10
2015,10,27,02,12,9.10
2015,10,27,02,13,9.10
2015,10,27,02,14,9.10
2015,10,27,02,15,9.10
2015,10,27,02,16,9.10
2015,10,27,02,17,9.10
2015,10,27,02,18,9.10
2015,10,27,02,19,9.10
2015,10,27,02,20,9.10
2015,10,27,02,21,9.10
2015,10,27,02,22,9.10
2015,10,27,02,23,9.10
2015,10,27,02,24,9.10
2015,10,27,02,25,9.10
2015,10,27,02,26,9.10
2015,10,27,02,27,9.10
2015,10,27,02,28,9.10
2015,10,27,02,29,9.10
2015,10,27,02,30,9.10
2015,10,27,02,31,9.10
2015,10,27,02,32,9.10
2015,10,27,02,33,9.10
2015,10,27,02,34,9.10
2015,10,27,02,35,9.10
2015,10,27,02,36,9.10
2015,10,27,02,37,9.10
2015,10,27,02,38,9.10
2015,10,27,02,39,9.10
2015,10,27,02,40,9.10
2015,10,27,02,41,9.10
2015,10,27,02,42,9.10
2015,10,27,02,43,9.10
2015,10,27,02,44,9.10
2015,10,27,02,45,9.10
2015,10,27,02,46,9.10
2015,10,27,02,47,9.10
2015,10,27,02,48,9.10
2015,10,27,02,49,9.10
2015,10,27,02,50,9.10
2015,10,27,02,51,9.10
2015,10,27,02,52,9.10
2015,10,27,02,53,9.10
2015,10,27,02,54,9.10
2015,10,27,02,55,9.00
2015,10,27,02,56,9.00
2015,10,27,02,57,9.00
2015,10,27,02,58,9.00
2015,10,27,02,59,9.00
2015,10,27,03,00,9.00
2015,10,27,03,01,9.00
2015,10,27,03,02,9.00
2015,10,27,03,03,9.00
2015,10,27,03,04,9.00
2015,10,27,03,05,9.00
2015,10,27,03,06,9.00
2015,10,27,03,07,9.00
2015,10,27,03,08,9.00
2015,10,27,03,09,9.00
2015,10,27,03,10,9.00
2015,10,27,03,11,9.00
2015,10,27,03,12,9.00
2015,10,27,03,13,9.00
2015,10,27,03,14,9.00
2015,10,27,03,15,9.00
2015,10,27,03,16,9.00
2015,10,27,03,17,9.00
2015,10,27,03,18,9.00
2015,10,27,03,19,9.00
2015,10,27,03,20,9.10
2015,10,27,03,21,9.10
2015,10,27,03,22,9.10
2015,10,27,03,23,9.10
2015,10,27,03,24,9.10
2015,10,27,03,25,9.10
2015,10,27,03,26,9.10
2015,10,27,03,27,9.10
2015,10,27,03,28,9.10
2015,10,27,03,29,9.10
2015,10,27,03,30,9.10
2015,10,27,03,31,9.10
2015,10,27,03,32,9.10
2015,10,27,03,33,9.10
2015,10,27,03,34,9.10
2015,10,27,03,35,9.10
2015,10,27,03,36,9.10
2015,10,27,03,37,9.00
2015,10,27,03,38,9.00
2015,10,27,03,39,9.00
2015,10,27,03,40,9.00
2015,10,27,03,41,9.00
2015,10,27,03,42,9.00
2015,10,27,03,43,9.00
2015,10,27,03,44,9.00
2015,10,27,03,45,9.00
2015,10,27,03,46,9.00
2015,10,27,03,47,9.00
2015,10,27,03,48,9.00
2015,10,27,03,49,9.00
2015,10,27,03,50,9.00
2015,10,27,03,51,9.00
2015,10,27,03,52,9.00
2015,10,27,03,53,8.90
2015,10,27,03,54,8.90
2015,10,27,03,55,8.90
2015,10,27,03,56,8.90
2015,10,27,03,57,8.90
2015,10,27,03,58,8.90
2015,10,27,03,59,8.80
2015,10,27,04,00,8.80
2015,10,27,04,01,8.80
2015,10,27,04,02,8.80
2015,10,27,04,03,8.80
2015,10,27,04,04,8.80
2015,10,27,04,05,8.80
2015,10,27,04,06,8.80
2015,10,27,04,07,8.80
2015,10,27,04,08,8.70
2015,10,27,04,09,8.70
2015,10,27,04,10,8.70
2015,10,27,04,11,8.70
2015,10,27,04,12,8.70
2015,10,27,04,13,8.70
2015,10,27,04,14,8.70
2015,10,27,04,15,8.70
2015,10,27,04,16,8.70
2015,10,27,04,17,8.70
2015,10,27,04,18,8.70
2015,10,27,04,19,8.70
2015,10,27,04,20,8.60
2015,10,27,04,21,8.70
2015,10,27,04,22,8.70
2015,10,27,04,23,8.70
2015,10,27,04,24,8.70
2015,10,27,04,25,8.70
2015,10,27,04,26,8.70
2015,10,27,04,27,8.70
2015,10,27,04,28,8.70
2015,10,27,04,29,8.60
2015,10,27,04,30,8.60
2015,10,27,04,31,8.60
2015,10,27,04,32,8.60
2015,10,27,04,33,8.60
2015,10,27,04,34,8.60
2015,10,27,04,35,8.60
2015,10,27,04,36,8.60
2015,10,27,04,37,8.50
2015,10,27,04,38,8.50
2015,10,27,04,39,8.40
2015,10,27,04,40,8.40
2015,10,27,04,41,8.40
2015,10,27,04,42,8.40
2015,10,27,04,43,8.40
2015,10,27,04,44,8.30
2015,10,27,04,45,8.30
2015,10,27,04,46,8.30
2015,10,27,04,47,8.30
2015,10,27,04,48,8.30
2015,10,27,04,49,8.30
2015,10,27,04,50,8.30
2015,10,27,04,51,8.30
2015,10,27,04,52,8.30
2015,10,27,04,53,8.20
2015,10,27,04,54,8.20
2015,10,27,04,55,8.20
2015,10,27,04,56,8.20
2015,10,27,04,57,8.20
2015,10,27,04,58,8.20
2015,10,27,04,59,8.10
2015,10,27,05,00,8.10
2015,10,27,05,01,8.10
2015,10,27,05,02,8.00
2015,10,27,05,03,8.00
2015,10,27,05,04,8.00
2015,10,27,05,05,8.00
2015,10,27,05,06,8.00
2015,10,27,05,07,7.90
2015,10,27,05,08,7.90
2015,10,27,05,09,7.90
2015,10,27,05,10,7.90
2015,10,27,05,11,7.90
2015,10,27,05,12,7.90
2015,10,27,05,13,7.80
2015,10,27,05,14,7.80
2015,10,27,05,15,7.80
2015,10,27,05,16,7.80
2015,10,27,05,17,7.80
2015,10,27,05,18,7.80
2015,10,27,05,19,7.80
2015,10,27,05,20,7.80
2015,10,27,05,21,7.80
2015,10,27,05,22,7.80
2015,10,27,05,23,7.80
2015,10,27,05,24,7.80
2015,10,27,05,25,7.80
2015,10,27,05,26,7.80
2015,10,27,05,27,7.80
2015,10,27,05,28,7.70
2015,10,27,05,29,7.70
2015,10,27,05,30,7.70
2015,10,27,05,31,7.70
2015,10,27,05,32,7.70
2015,10,27,05,33,7.70
2015,10,27,05,34,7.70
2015,10,27,05,35,7.70
2015,10,27,05,36,7.70
2015,10,27,05,37,7.70
2015,10,27,05,38,7.70
2015,10,27,05,39,7.60
2015,10,27,05,40,7.60
2015,10,27,05,41,7.60
2015,10,27,05,42,7.60
2015,10,27,05,43,7.60
2015,10,27,05,44,7.60
2015,10,27,05,45,7.60
2015,10,27,05,46,7.60
2015,10,27,05,47,7.60
2015,10,27,05,48,7.60
2015,10,27,05,49,7.60
2015,10,27,05,50,7.60
2015,10,27,05,51,7.60
2015,10,27,05,52,7.60
2015,10,27,05,53,7.60
2015,10,27,05,54,7.60
2015,10,27,05,55,7.60
2015,10,27,05,56,7.60
2015,10,27,05,57,7.50
2015,10,27,05,58,7.50
2015,10,27,05,59,7.50
2015,10,27,06,00,7.50
2015,10,27,06,01,7.40
2015,10,27,06,02,7.40
2015,10,27,06,03,7.40
2015,10,27,06,04,7.40
2015,10,27,06,05,7.40
2015,10,27,06,06,7.40
2015,10,27,06,07,7.30
2015,10,27,06,08,7.30
2015,10,27,06,09,7.30
2015,10,27,06,10,7.30
2015,10,27,06,11,7.30
2015,10,27,06,12,7.30
2015,10,27,06,13,7.30
2015,10,27,06,14,7.30
2015,10,27,06,15,7.20
2015,10,27,06,16,7.30
2015,10,27,06,17,7.20
2015,10,27,06,18,7.20
2015,10,27,06,19,7.20
2015,10,27,06,20,7.20
2015,10,27,06,21,7.20
2015,10,27,06,22,7.20
2015,10,27,06,23,7.20
2015,10,27,06,24,7.20
2015,10,27,06,25,7.20
2015,10,27,06,26,7.20
2015,10,27,06,27,7.20
2015,10,27,06,28,7.20
2015,10,27,06,29,7.20
2015,10,27,06,30,7.20
2015,10,27,06,31,7.20
2015,10,27,06,32,7.20
2015,10,27,06,33,7.20
2015,10,27,06,34,7.20
2015,10,27,06,35,7.20
2015,10,27,06,36,7.20
2015,10,27,06,37,7.20
2015,10,27,06,38,7.20
2015,10,27,06,39,7.20
2015,10,27,06,40,7.20
2015,10,27,06,41,7.10
2015,10,27,06,42,7.10
2015,10,27,06,43,7.10
2015,10,27,06,44,7.10
2015,10,27,06,45,7.10
2015,10,27,06,46,7.10
2015,10,27,06,47,7.10
2015,10,27,06,48,7.10
2015,10,27,06,49,7.10
2015,10,27,06,50,7.10
2015,10,27,06,51,7.10
2015,10,27,06,52,7.10
2015,10,27,06,53,7.10
2015,10,27,06,54,7.20
2015,10,27,06,55,7.20
2015,10,27,06,56,7.20
2015,10,27,06,57,7.20
2015,10,27,06,58,7.20
2015,10,27,06,59,7.20
2015,10,27,07,00,7.20
2015,10,27,07,01,7.20
2015,10,27,07,02,7.20
2015,10,27,07,03,7.20
2015,10,27,07,04,7.20
2015,10,27,07,05,7.20
2015,10,27,07,06,7.20
2015,10,27,07,07,7.20
2015,10,27,07,08,7.20
2015,10,27,07,09,7.30
2015,10,27,07,10,7.30
2015,10,27,07,11,7.30
2015,10,27,07,12,7.30
2015,10,27,07,13,7.30
2015,10,27,07,14,7.30
2015,10,27,07,15,7.20
2015,10,27,07,16,7.20
2015,10,27,07,17,7.30
2015,10,27,07,18,7.20
2015,10,27,07,19,7.20
2015,10,27,07,20,7.20
2015,10,27,07,21,7.20
2015,10,27,07,22,7.20
2015,10,27,07,23,7.10
2015,10,27,07,24,7.10
2015,10,27,07,25,7.10
2015,10,27,07,26,7.10
2015,10,27,07,27,7.10
2015,10,27,07,28,7.10
2015,10,27,07,29,7.10
2015,10,27,07,30,7.10
2015,10,27,07,31,7.10
2015,10,27,07,32,7.10
2015,10,27,07,33,7.10
2015,10,27,07,34,7.10
2015,10,27,07,35,7.10
2015,10,27,07,36,7.10
2015,10,27,07,37,7.10
2015,10,27,07,38,7.10
2015,10,27,07,39,7.10
2015,10,27,07,40,7.10
2015,10,27,07,41,7.00
2015,10,27,07,42,7.00
2015,10,27,07,43,7.00
2015,10,27,07,44,7.00
2015,10,27,07,45,6.90
2015,10,27,07,46,6.90
2015,10,27,07,47,6.90
2015,10,27,07,48,6.90
2015,10,27,07,49,6.90
2015,10,27,07,50,6.90
2015,10,27,07,51,6.90
2015,10,27,07,52,6.90
2015,10,27,07,53,6.90
2015,10,27,07,54,6.90
2015,10,27,07,55,6.90
2015,10,27,07,56,6.90
2015,10,27,07,57,6.90
2015,10,27,07,58,6.90
2015,10,27,07,59,6.90
2015,10,27,08,00,6.90
2015,10,27,08,01,6.90
2015,10,27,08,02,6.90
2015,10,27,08,03,6.90
2015,10,27,08,04,6.90
2015,10,27,08,05,6.90
2015,10,27,08,06,6.90
2015,10,27,08,07,6.90
2015,10,27,08,08,6.90
2015,10,27,08,09,6.90
2015,10,27,08,10,6.90
2015,10,27,08,11,6.90
2015,10,27,08,12,6.90
2015,10,27,08,13,6.90
2015,10,27,08,14,6.90
2015,10,27,08,15,6.90
2015,10,27,08,16,6.90
2015,10,27,08,17,6.90
2015,10,27,08,18,7.00
2015,10,27,08,19,7.00
2015,10,27,08,20,7.00
2015,10,27,08,21,7.00
2015,10,27,08,22,7.00
2015,10,27,08,23,6.90
2015,10,27,08,24,6.90
2015,10,27,08,25,6.90
2015,10,27,08,26,6.90
2015,10,27,08,27,7.00
2015,10,27,08,28,7.00
2015,10,27,08,29,7.00
2015,10,27,08,30,7.00
2015,10,27,08,31,7.00
2015,10,27,08,32,7.00
2015,10,27,08,33,7.00
2015,10,27,08,34,7.00
2015,10,27,08,35,7.00
2015,10,27,08,36,7.00
2015,10,27,08,37,7.00
2015,10,27,08,38,7.00
2015,10,27,08,39,7.00
2015,10,27,08,40,7.00
2015,10,27,08,41,7.10
2015,10,27,08,42,7.10
2015,10,27,08,43,7.10
2015,10,27,08,44,7.10
2015,10,27,08,45,7.10
2015,10,27,08,46,7.10
2015,10,27,08,47,7.10
2015,10,27,08,48,7.10
2015,10,27,08,49,7.10
2015,10,27,08,50,7.10
2015,10,27,08,51,7.10
2015,10,27,08,52,7.10
2015,10,27,08,53,7.10
2015,10,27,08,54,7.10
2015,10,27,08,55,7.10
2015,10,27,08,56,7.10
2015,10,27,08,57,7.10
2015,10,27,08,58,7.10
2015,10,27,08,59,7.10
2015,10,27,09,00,7.20
2015,10,27,09,01,7.20
2015,10,27,09,02,7.20
2015,10,27,09,03,7.20
2015,10,27,09,04,7.20
2015,10,27,09,05,7.20
2015,10,27,09,06,7.20
2015,10,27,09,07,7.20
2015,10,27,09,08,7.20
2015,10,27,09,09,7.20
2015,10,27,09,10,7.20
2015,10,27,09,11,7.20
2015,10,27,09,12,7.20
2015,10,27,09,13,7.20
2015,10,27,09,14,7.20
2015,10,27,09,15,7.20
2015,10,27,09,16,7.30
2015,10,27,09,17,7.30
2015,10,27,09,18,7.30
2015,10,27,09,19,7.30
2015,10,27,09,20,7.30
2015,10,27,09,21,7.30
2015,10,27,09,22,7.30
2015,10,27,09,23,7.40
2015,10,27,09,24,7.40
2015,10,27,09,25,7.40
2015,10,27,09,26,7.40
2015,10,27,09,27,7.40
2015,10,27,09,28,7.50
2015,10,27,09,29,7.50
2015,10,27,09,30,7.60
2015,10,27,09,31,7.50
2015,10,27,09,32,7.50
2015,10,27,09,33,7.50
2015,10,27,09,34,7.50
2015,10,27,09,35,7.50
2015,10,27,09,36,7.50
2015,10,27,09,37,7.50
2015,10,27,09,38,7.50
2015,10,27,09,39,7.50
2015,10,27,09,40,7.50
2015,10,27,09,41,7.50
2015,10,27,09,42,7.50
2015,10,27,09,43,7.60
2015,10,27,09,44,7.60
2015,10,27,09,45,7.60
2015,10,27,09,46,7.60
2015,10,27,09,47,7.60
2015,10,27,09,48,7.60
2015,10,27,09,49,7.60
2015,10,27,09,50,7.70
2015,10,27,09,51,7.70
2015,10,27,09,52,7.70
2015,10,27,09,53,7.80
2015,10,27,09,54,7.80
2015,10,27,09,55,7.80
2015,10,27,09,56,7.80
2015,10,27,09,57,7.90
2015,10,27,09,58,7.90
2015,10,27,09,59,7.90
2015,10,27,10,00,7.90
2015,10,27,10,01,7.90
2015,10,27,10,02,8.00
2015,10,27,10,03,8.00
2015,10,27,10,04,8.00
2015,10,27,10,05,8.10
2015,10,27,10,06,8.10
2015,10,27,10,07,8.10
2015,10,27,10,08,8.10
2015,10,27,10,09,8.10
2015,10,27,10,10,8.10
2015,10,27,10,11,8.10
2015,10,27,10,12,8.10
2015,10,27,10,13,8.10
2015,10,27,10,14,8.20
2015,10,27,10,15,8.20
2015,10,27,10,16,8.20
2015,10,27,10,17,8.20
2015,10,27,10,18,8.30
2015,10,27,10,19,8.30
2015,10,27,10,20,8.30
2015,10,27,10,21,8.40
2015,10,27,10,22,8.40
2015,10,27,10,23,8.40
2015,10,27,10,24,8.50
2015,10,27,10,25,8.50
2015,10,27,10,26,8.60
2015,10,27,10,27,8.60
2015,10,27,10,28,8.60
2015,10,27,10,29,8.70
2015,10,27,10,30,8.70
2015,10,27,10,31,8.70
2015,10,27,10,32,8.70
2015,10,27,10,33,8.70
2015,10,27,10,34,8.70
2015,10,27,10,35,8.80
2015,10,27,10,36,8.80
2015,10,27,10,37,8.80
2015,10,27,10,38,8.90
2015,10,27,10,39,8.90
2015,10,27,10,40,8.90
2015,10,27,10,41,9.00
2015,10,27,10,42,9.00
2015,10,27,10,43,9.10
2015,10,27,10,44,9.10
2015,10,27,10,45,9.10
2015,10,27,10,46,9.10
2015,10,27,10,47,9.10
2015,10,27,10,48,9.10
2015,10,27,10,49,9.20
2015,10,27,10,50,9.20
2015,10,27,10,51,9.20
2015,10,27,10,52,9.20
2015,10,27,10,53,9.20
2015,10,27,10,54,9.20
2015,10,27,10,55,9.20
2015,10,27,10,56,9.20
2015,10,27,10,57,9.20
2015,10,27,10,58,9.20
2015,10,27,10,59,9.20
2015,10,27,11,00,9.20
2015,10,27,11,01,9.20
2015,10,27,11,02,9.20
2015,10,27,11,03,9.30
2015,10,27,11,04,9.30
2015,10,27,11,05,9.30
2015,10,27,11,06,9.40
2015,10,27,11,07,9.40
2015,10,27,11,08,9.40
2015,10,27,11,09,9.50
2015,10,27,11,10,9.60
2015,10,27,11,11,9.60
2015,10,27,11,12,9.70
2015,10,27,11,13,9.70
2015,10,27,11,14,9.80
2015,10,27,11,15,9.80
2015,10,27,11,16,9.90
2015,10,27,11,17,10.00
2015,10,27,11,18,10.00
2015,10,27,11,19,10.10
2015,10,27,11,20,10.10
2015,10,27,11,21,10.10
2015,10,27,11,22,10.10
2015,10,27,11,23,10.20
2015,10,27,11,24,10.20
2015,10,27,11,25,10.30
2015,10,27,11,26,10.30
2015,10,27,11,27,10.40
2015,10,27,11,28,10.40
2015,10,27,11,29,10.50
2015,10,27,11,30,10.50
2015,10,27,11,31,10.50
2015,10,27,11,32,10.50
2015,10,27,11,33,10.50
2015,10,27,11,34,10.60
2015,10,27,11,35,10.60
2015,10,27,11,36,10.60
2015,10,27,11,37,10.70
2015,10,27,11,38,10.70
2015,10,27,11,39,10.70
2015,10,27,11,40,10.70
2015,10,27,11,41,10.80
2015,10,27,11,42,10.80
2015,10,27,11,43,10.80
2015,10,27,11,44,10.90
2015,10,27,11,45,10.90
2015,10,27,11,46,11.00
2015,10,27,11,47,11.10
2015,10,27,11,48,11.10
2015,10,27,11,49,11.20
2015,10,27,11,50,11.20
2015,10,27,11,51,11.20
2015,10,27,11,52,11.20
2015,10,27,11,53,11.30
2015,10,27,11,54,11.30
2015,10,27,11,55,11.30
2015,10,27,11,56,11.40
2015,10,27,11,57,11.40
2015,10,27,11,58,11.50
2015,10,27,11,59,11.50
2015,10,27,12,00,11.60
2015,10,27,12,01,11.60
2015,10,27,12,02,11.60
2015,10,27,12,03,11.70
2015,10,27,12,04,11.80
2015,10,27,12,05,11.80
2015,10,27,12,06,11.90
2015,10,27,12,07,11.90
2015,10,27,12,08,12.00
2015,10,27,12,09,12.10
2015,10,27,12,10,12.20
2015,10,27,12,11,12.20
2015,10,27,12,12,12.30
2015,10,27,12,13,12.40
2015,10,27,12,14,12.40
2015,10,27,12,15,12.50
2015,10,27,12,16,12.60
2015,10,27,12,17,12.70
2015,10,27,12,18,12.70
2015,10,27,12,19,12.80
2015,10,27,12,20,12.90
2015,10,27,12,21,13.00
2015,10,27,12,22,13.10
2015,10,27,12,23,13.20
2015,10,27,12,24,13.40
2015,10,27,12,25,13.50
2015,10,27,12,26,13.60
2015,10,27,12,27,13.70
2015,10,27,12,28,13.80
2015,10,27,12,29,13.80
2015,10,27,12,30,13.80
2015,10,27,12,31,13.90
2015,10,27,12,32,13.90
2015,10,27,12,33,13.90
2015,10,27,12,34,14.00
2015,10,27,12,35,14.00
2015,10,27,12,36,14.00
2015,10,27,12,37,14.10
2015,10,27,12,38,14.10
2015,10,27,12,39,14.20
2015,10,27,12,40,14.20
2015,10,27,12,41,14.30
2015,10,27,12,42,14.40
2015,10,27,12,43,14.50
2015,10,27,12,44,14.50
2015,10,27,12,45,14.60
2015,10,27,12,46,14.70
2015,10,27,12,47,14.80
2015,10,27,12,48,15.00
2015,10,27,12,49,15.10
2015,10,27,12,50,15.20
2015,10,27,12,51,15.30
2015,10,27,12,52,15.40
2015,10,27,12,53,15.50
2015,10,27,12,54,15.50
2015,10,27,12,55,15.60
2015,10,27,12,56,15.50
2015,10,27,12,57,15.50
2015,10,27,12,58,15.40
2015,10,27,12,59,15.40
2015,10,27,13,00,15.40
2015,10,27,13,01,15.40
2015,10,27,13,02,15.40
2015,10,27,13,03,15.40
2015,10,27,13,04,15.40
2015,10,27,13,05,15.40
2015,10,27,13,06,15.40
2015,10,27,13,07,15.40
2015,10,27,13,08,15.40
2015,10,27,13,09,15.40
2015,10,27,13,10,15.40
2015,10,27,13,11,15.40
2015,10,27,13,12,15.40
2015,10,27,13,13,15.40
2015,10,27,13,14,15.40
2015,10,27,13,15,15.40
2015,10,27,13,16,15.30
2015,10,27,13,17,15.30
2015,10,27,13,18,15.30
2015,10,27,13,19,15.20
2015,10,27,13,20,15.20
2015,10,27,13,21,15.20
2015,10,27,13,22,15.20
2015,10,27,13,23,15.20
2015,10,27,13,24,15.30
2015,10,27,13,25,15.30
2015,10,27,13,26,15.40
2015,10,27,13,27,15.40
2015,10,27,13,28,15.40
2015,10,27,13,29,15.50
2015,10,27,13,30,15.50
2015,10,27,13,31,15.50
2015,10,27,13,32,15.60
2015,10,27,13,33,15.60
2015,10,27,13,34,15.60
2015,10,27,13,35,15.70
2015,10,27,13,36,15.70
2015,10,27,13,37,15.70
2015,10,27,13,38,15.70
2015,10,27,13,39,15.70
2015,10,27,13,40,15.80
2015,10,27,13,41,15.80
2015,10,27,13,42,15.80
2015,10,27,13,43,15.90
2015,10,27,13,44,15.90
2015,10,27,13,45,16.00
2015,10,27,13,46,16.00
2015,10,27,13,47,16.10
2015,10,27,13,48,16.10
2015,10,27,13,49,16.10
2015,10,27,13,50,16.20
2015,10,27,13,51,16.20
2015,10,27,13,52,16.20
2015,10,27,13,53,16.20
2015,10,27,13,54,16.20
2015,10,27,13,55,16.10
2015,10,27,13,56,16.10
2015,10,27,13,57,16.00
2015,10,27,13,58,16.00
2015,10,27,13,59,16.00
2015,10,27,14,00,15.90
2015,10,27,14,01,16.00
2015,10,27,14,02,16.00
2015,10,27,14,03,16.00
2015,10,27,14,04,16.10
2015,10,27,14,05,16.10
2015,10,27,14,06,16.10
2015,10,27,14,07,16.00
2015,10,27,14,08,16.00
2015,10,27,14,09,15.90
2015,10,27,14,10,15.90
2015,10,27,14,11,15.80
2015,10,27,14,12,15.80
2015,10,27,14,13,15.70
2015,10,27,14,14,15.70
2015,10,27,14,15,15.70
2015,10,27,14,16,15.70
2015,10,27,14,17,15.70
2015,10,27,14,18,15.70
2015,10,27,14,19,15.70
2015,10,27,14,20,15.70
2015,10,27,14,21,15.70
2015,10,27,14,22,15.70
2015,10,27,14,23,15.70
2015,10,27,14,24,15.70
2015,10,27,14,25,15.70
2015,10,27,14,26,15.70
2015,10,27,14,27,15.70
2015,10,27,14,28,15.70
2015,10,27,14,29,15.70
2015,10,27,14,30,15.70
2015,10,27,14,31,15.70
2015,10,27,14,32,15.70
2015,10,27,14,33,15.70
2015,10,27,14,34,15.70
2015,10,27,14,35,15.70
2015,10,27,14,36,15.70
2015,10,27,14,37,15.70
2015,10,27,14,38,15.60
2015,10,27,14,39,15.60
2015,10,27,14,40,15.60
2015,10,27,14,41,15.50
2015,10,27,14,42,15.50
2015,10,27,14,43,15.50
2015,10,27,14,44,15.50
2015,10,27,14,45,15.50
2015,10,27,14,46,15.50
2015,10,27,14,47,15.50
2015,10,27,14,48,15.50
2015,10,27,14,49,15.50
2015,10,27,14,50,15.50
2015,10,27,14,51,15.40
2015,10,27,14,52,15.40
2015,10,27,14,53,15.40
2015,10,27,14,54,15.40
2015,10,27,14,55,15.40
2015,10,27,14,56,15.40
2015,10,27,14,57,15.40
2015,10,27,14,58,15.40
2015,10,27,14,59,15.30
2015,10,27,15,00,15.30
2015,10,27,15,01,15.30
2015,10,27,15,02,15.20
2015,10,27,15,03,15.20
2015,10,27,15,04,15.20
2015,10,27,15,05,15.10
2015,10,27,15,06,15.10
2015,10,27,15,07,15.10
2015,10,27,15,08,15.10
2015,10,27,15,09,15.00
2015,10,27,15,10,15.00
2015,10,27,15,11,15.00
2015,10,27,15,12,14.90
2015,10,27,15,13,14.90
2015,10,27,15,14,14.90
2015,10,27,15,15,14.80
2015,10,27,15,16,14.80
2015,10,27,15,17,14.80
2015,10,27,15,18,14.80
2015,10,27,15,19,14.80
2015,10,27,15,20,14.80
2015,10,27,15,21,14.80
2015,10,27,15,22,14.80
2015,10,27,15,23,14.80
2015,10,27,15,24,14.80
2015,10,27,15,25,14.80
2015,10,27,15,26,14.80
2015,10,27,15,27,14.80
2015,10,27,15,28,14.90
2015,10,27,15,29,14.90
2015,10,27,15,30,14.90
2015,10,27,15,31,14.90
2015,10,27,15,32,14.90
2015,10,27,15,33,14.90
2015,10,27,15,34,14.90
2015,10,27,15,35,14.90
2015,10,27,15,36,15.00
2015,10,27,15,37,15.00
2015,10,27,15,38,15.00
2015,10,27,15,39,15.00
2015,10,27,15,40,15.00
2015,10,27,15,41,14.90
2015,10,27,15,42,14.90
2015,10,27,15,43,15.00
2015,10,27,15,44,15.00
2015,10,27,15,45,15.00
2015,10,27,15,46,15.00
2015,10,27,15,47,15.00
2015,10,27,15,48,15.00
2015,10,27,15,49,14.90
2015,10,27,15,50,14.90
2015,10,27,15,51,14.90
2015,10,27,15,52,14.90
2015,10,27,15,53,14.90
2015,10,27,15,54,14.90
2015,10,27,15,55,14.90
2015,10,27,15,56,14.90
2015,10,27,15,57,14.90
2015,10,27,15,58,14.90
2015,10,27,15,59,14.90
2015,10,27,16,00,14.90
2015,10,27,16,01,14.80
2015,10,27,16,02,14.80
2015,10,27,16,03,14.80
2015,10,27,16,04,14.80
2015,10,27,16,05,14.80
2015,10,27,16,06,14.80
2015,10,27,16,07,14.80
2015,10,27,16,08,14.80
2015,10,27,16,09,14.80
2015,10,27,16,10,14.80
2015,10,27,16,11,14.80
2015,10,27,16,12,14.80
2015,10,27,16,13,14.70
2015,10,27,16,14,14.70
2015,10,27,16,15,14.70
2015,10,27,16,16,14.60
2015,10,27,16,17,14.60
2015,10,27,16,18,14.50
2015,10,27,16,19,14.40
2015,10,27,16,20,14.40
2015,10,27,16,21,14.40
2015,10,27,16,22,14.40
2015,10,27,16,23,14.40
2015,10,27,16,24,14.40
2015,10,27,16,25,14.40
2015,10,27,16,26,14.40
2015,10,27,16,27,14.30
2015,10,27,16,28,14.30
2015,10,27,16,29,14.30
2015,10,27,16,30,14.30
2015,10,27,16,31,14.30
2015,10,27,16,32,14.30
2015,10,27,16,33,14.30
2015,10,27,16,34,14.30
2015,10,27,16,35,14.30
2015,10,27,16,36,14.30
2015,10,27,16,37,14.40
2015,10,27,16,38,14.40
2015,10,27,16,39,14.40
2015,10,27,16,40,14.40
2015,10,27,16,41,14.40
2015,10,27,16,42,14.50
2015,10,27,16,43,14.50
2015,10,27,16,44,14.50
2015,10,27,16,45,14.50
2015,10,27,16,46,14.50
2015,10,27,16,47,14.50
2015,10,27,16,48,14.50
2015,10,27,16,49,14.50
2015,10,27,16,50,14.50
2015,10,27,16,51,14.50
2015,10,27,16,52,14.50
2015,10,27,16,53,14.50
2015,10,27,16,54,14.40
2015,10,27,16,55,14.40
2015,10,27,16,56,14.40
2015,10,27,16,57,14.40
2015,10,27,16,58,14.40
2015,10,27,16,59,14.40
2015,10,27,17,00,14.30
2015,10,27,17,01,14.30
2015,10,27,17,02,14.30
2015,10,27,17,03,14.30
2015,10,27,17,04,14.30
2015,10,27,17,05,14.30
2015,10,27,17,06,14.30
2015,10,27,17,07,14.20
2015,10,27,17,08,14.20
2015,10,27,17,09,14.10
2015,10,27,17,10,14.10
2015,10,27,17,11,14.00
2015,10,27,17,12,14.00
2015,10,27,17,13,13.90
2015,10,27,17,14,13.90
2015,10,27,17,15,13.90
2015,10,27,17,16,13.90
2015,10,27,17,17,13.80
2015,10,27,17,18,13.80
2015,10,27,17,19,13.80
2015,10,27,17,20,13.80
2015,10,27,17,21,13.80
2015,10,27,17,22,13.80
2015,10,27,17,23,13.70
2015,10,27,17,24,13.70
2015,10,27,17,25,13.70
2015,10,27,17,26,13.70
2015,10,27,17,27,13.70
2015,10,27,17,28,13.70
2015,10,27,17,29,13.80
2015,10,27,17,30,13.80
2015,10,27,17,31,13.80
2015,10,27,17,32,13.80
2015,10,27,17,33,13.80
2015,10,27,17,34,13.80
2015,10,27,17,35,13.80
2015,10,27,17,36,13.70
2015,10,27,17,37,13.70
2015,10,27,17,38,13.70
2015,10,27,17,39,13.60
2015,10,27,17,40,13.50
2015,10,27,17,41,13.50
2015,10,27,17,42,13.40
2015,10,27,17,43,13.40
2015,10,27,17,44,13.40
2015,10,27,17,45,13.40
2015,10,27,17,46,13.40
2015,10,27,17,47,13.40
2015,10,27,17,48,13.30